Time,TemperatureF,DewpointF,PressureIn,WindDirection,WindDirectionDegrees,WindSpeedMPH,WindSpeedGustMPH,Humidity,HourlyPrecipIn,Conditions,Clouds,dailyrainin,SoftwareType,DateUTC
2014-01-10 00:22:00,31.0,21.0,30.53,East,99,0.0,0.0,67,0.00,,,0.00,,2014-01-10 05:22:00,
2014-01-10 00:43:00,31.0,22.0,30.52,East,99,0.0,0.0,68,0.00,,,0.00,,2014-01-10 05:43:00,
2014-01-10 00:53:00,31.0,22.0,30.52,East,98,0.0,0.0,68,0.00,,,0.00,,2014-01-10 05:53:00,
2014-01-10 01:22:00,31.0,22.0,30.50,East,99,0.0,0.0,69,0.00,,,0.00,,2014-01-10 06:22:00,
2014-01-10 01:52:00,32.0,23.0,30.50,East,96,0.0,1.0,70,0.00,,,0.00,,2014-01-10 06:52:00,
2014-01-10 02:22:00,32.0,23.0,30.50,East,96,0.0,0.0,70,0.00,,,0.00,,2014-01-10 07:22:00,
2014-01-10 02:42:00,32.0,23.0,30.50,East,97,0.0,0.0,70,0.00,,,0.00,,2014-01-10 07:42:00,
2014-01-10 02:52:00,32.0,23.0,30.50,East,96,0.0,0.0,70,0.00,,,0.00,,2014-01-10 07:52:00,
2014-01-10 03:22:00,32.0,23.0,30.49,East,96,0.0,0.0,70,0.00,,,0.00,,2014-01-10 08:22:00,
2014-01-10 03:42:00,32.0,24.0,30.47,East,97,0.0,0.0,71,0.00,,,0.00,,2014-01-10 08:42:00,
2014-01-10 03:53:00,32.0,23.0,30.47,East,97,0.0,0.0,70,0.00,,,0.00,,2014-01-10 08:53:00,
2014-01-10 04:22:00,32.0,24.0,30.46,East,96,0.0,0.0,71,0.00,,,0.00,,2014-01-10 09:22:00,
2014-01-10 04:54:00,32.0,24.0,30.44,East,97,0.0,0.0,71,0.00,,,0.00,,2014-01-10 09:54:00,
2014-01-10 05:23:00,32.0,25.0,30.44,East,97,0.0,0.0,74,0.00,,,0.00,,2014-01-10 10:23:00,
2014-01-10 05:52:00,32.0,27.0,30.44,East,97,0.0,0.0,80,0.00,,,0.00,,2014-01-10 10:52:00,
2014-01-10 06:22:00,32.0,28.0,30.43,East,97,0.0,0.0,86,0.01,,,0.01,,2014-01-10 11:22:00,
2014-01-10 06:54:00,32.0,29.0,30.44,East,96,0.0,0.0,88,0.02,,,0.02,,2014-01-10 11:54:00,
2014-01-10 07:22:00,32.0,29.0,30.44,East,97,0.0,0.0,90,0.01,,,0.02,,2014-01-10 12:22:00,
2014-01-10 07:42:00,32.0,29.0,30.43,East,97,0.0,0.0,90,0.01,,,0.02,,2014-01-10 12:42:00,
2014-01-10 07:52:00,32.0,30.0,30.43,East,94,0.0,0.0,91,0.00,,,0.02,,2014-01-10 12:52:00,
2014-01-10 08:22:00,32.0,30.0,30.44,ENE,70,0.0,0.0,91,0.01,,,0.03,,2014-01-10 13:22:00,
2014-01-10 08:52:00,32.0,30.0,30.45,ENE,71,0.0,1.0,92,0.02,,,0.04,,2014-01-10 13:52:00,
2014-01-10 09:22:00,32.0,30.0,30.44,ENE,71,0.0,0.0,92,0.05,,,0.08,,2014-01-10 14:22:00,
2014-01-10 09:42:00,32.0,30.0,30.45,ENE,71,0.0,0.0,93,0.06,,,0.10,,2014-01-10 14:42:00,
2014-01-10 09:52:00,32.0,30.0,30.44,ENE,70,0.0,0.0,93,0.08,,,0.12,,2014-01-10 14:52:00,
2014-01-10 10:22:00,32.0,30.0,30.43,ENE,69,0.0,0.0,93,0.05,,,0.14,,2014-01-10 15:22:00,
2014-01-10 10:43:00,33.0,31.0,30.44,ENE,70,0.0,0.0,93,0.04,,,0.14,,2014-01-10 15:43:00,
2014-01-10 10:53:00,33.0,31.0,30.42,ENE,71,0.0,0.0,94,0.02,,,0.14,,2014-01-10 15:53:00,
2014-01-10 11:23:00,34.0,32.0,30.40,ENE,69,0.0,0.0,94,0.00,,,0.14,,2014-01-10 16:23:00,
2014-01-10 11:52:00,34.0,32.0,30.39,ENE,69,0.0,0.0,94,0.00,,,0.14,,2014-01-10 16:52:00,
2014-01-10 12:22:00,35.0,33.0,30.37,ENE,69,0.0,0.0,94,0.00,,,0.14,,2014-01-10 17:22:00,
2014-01-10 12:43:00,35.0,33.0,30.36,ENE,70,0.0,0.0,94,0.00,,,0.14,,2014-01-10 17:43:00,
2014-01-10 12:53:00,35.0,33.0,30.35,ENE,69,0.0,0.0,94,0.00,,,0.14,,2014-01-10 17:53:00,
2014-01-10 13:22:00,36.0,34.0,30.34,ENE,70,0.0,0.0,94,0.01,,,0.15,,2014-01-10 18:22:00,
2014-01-10 13:42:00,36.0,35.0,30.33,ENE,70,0.0,0.0,95,0.02,,,0.16,,2014-01-10 18:42:00,
2014-01-10 13:52:00,36.0,35.0,30.33,ENE,70,0.0,0.0,95,0.02,,,0.16,,2014-01-10 18:52:00,
2014-01-10 14:12:00,36.0,35.0,30.32,ENE,70,0.0,0.0,95,0.02,,,0.16,,2014-01-10 19:12:00,
2014-01-10 14:22:00,37.0,36.0,30.32,ENE,70,0.0,0.0,95,0.01,,,0.16,,2014-01-10 19:22:00,
2014-01-10 14:52:00,37.0,36.0,30.30,ENE,69,0.0,0.0,95,0.02,,,0.18,,2014-01-10 19:52:00,
2014-01-10 15:22:00,37.0,36.0,30.31,ENE,70,0.0,0.0,95,0.02,,,0.18,,2014-01-10 20:22:00,
2014-01-10 15:42:00,37.0,35.0,30.31,ENE,69,0.0,0.0,94,0.01,,,0.18,,2014-01-10 20:42:00,
2014-01-10 15:52:00,37.0,35.0,30.30,ENE,70,0.0,0.0,94,0.00,,,0.18,,2014-01-10 20:52:00,
2014-01-10 16:22:00,37.0,35.0,30.29,ENE,70,0.0,0.0,94,0.00,,,0.18,,2014-01-10 21:22:00,
2014-01-10 16:43:00,37.0,35.0,30.29,ENE,71,0.0,0.0,94,0.01,,,0.19,,2014-01-10 21:43:00,
2014-01-10 16:53:00,37.0,35.0,30.29,ENE,71,0.0,0.0,94,0.02,,,0.20,,2014-01-10 21:53:00,
2014-01-10 17:23:00,37.0,35.0,30.28,ENE,71,0.0,0.0,94,0.04,,,0.22,,2014-01-10 22:23:00,
2014-01-10 17:43:00,37.0,35.0,30.28,ENE,71,0.0,0.0,94,0.03,,,0.22,,2014-01-10 22:43:00,
2014-01-10 17:53:00,37.0,35.0,30.28,ENE,71,0.0,0.0,94,0.03,,,0.22,,2014-01-10 22:53:00,
2014-01-10 18:22:00,37.0,35.0,30.27,ENE,71,0.0,0.0,94,0.01,,,0.23,,2014-01-10 23:22:00,
2014-01-10 18:53:00,37.0,35.0,30.27,ENE,71,0.0,0.0,94,0.02,,,0.24,,2014-01-10 23:53:00,
2014-01-10 19:22:00,37.0,36.0,30.28,ENE,71,0.0,0.0,95,0.01,,,0.24,,2014-01-11 00:22:00,
2014-01-10 19:52:00,37.0,35.0,30.27,ENE,71,0.0,0.0,94,0.01,,,0.25,,2014-01-11 00:52:00,
2014-01-10 20:22:00,36.0,35.0,30.24,ENE,67,0.0,0.0,95,0.02,,,0.26,,2014-01-11 01:22:00,
2014-01-10 20:42:00,36.0,35.0,30.24,ENE,67,0.0,0.0,95,0.01,,,0.26,,2014-01-11 01:42:00,
2014-01-10 20:52:00,36.0,35.0,30.23,ENE,67,0.0,0.0,95,0.01,,,0.26,,2014-01-11 01:52:00,
2014-01-10 21:12:00,36.0,35.0,30.23,ENE,67,0.0,0.0,95,0.01,,,0.26,,2014-01-11 02:12:00,
2014-01-10 21:22:00,36.0,35.0,30.21,ENE,67,0.0,0.0,95,0.00,,,0.26,,2014-01-11 02:22:00,
2014-01-10 21:52:00,36.0,35.0,30.19,ENE,67,0.0,0.0,95,0.00,,,0.26,,2014-01-11 02:52:00,
2014-01-10 22:22:00,36.0,35.0,30.19,ENE,67,0.0,0.0,95,0.00,,,0.26,,2014-01-11 03:22:00,
2014-01-10 22:43:00,36.0,35.0,30.18,ENE,67,0.0,0.0,95,0.00,,,0.26,,2014-01-11 03:43:00,
2014-01-10 22:54:00,36.0,35.0,30.17,ENE,67,0.0,0.0,95,0.00,,,0.26,,2014-01-11 03:54:00,
2014-01-10 23:13:00,36.0,35.0,30.15,ENE,67,0.0,0.0,95,0.00,,,0.26,,2014-01-11 04:13:00,
2014-01-10 23:23:00,36.0,35.0,30.15,ENE,67,0.0,0.0,95,0.00,,,0.26,,2014-01-11 04:23:00,
2014-01-10 23:42:00,36.0,35.0,30.15,ENE,67,0.0,0.0,95,0.00,,,0.26,,2014-01-11 04:42:00,
2014-01-10 23:53:00,36.0,35.0,30.14,ENE,67,0.0,0.0,95,0.00,,,0.26,,2014-01-11 04:53:00,